Regional Weather Roundup
Issued by NWS

Home | Current Version | Previous Version | Text Only | Print | Product List | Glossary Off
Versions: 1 2 3 4 5 6 7 8 9 10 11 12 13 14 15 16 17 18 19 20 21 22 23 24 25 26 27 28 29 30 31 32 33 34 35 36 37 38 39 40 41 42 43 44 45 46 47 48 49 50

626
ASUS43 KDMX 260003
RWRIA

WEATHER ROUNDUP FOR IOWA
NATIONAL WEATHER SERVICE DES MOINES IA
700 PM CDT SUN SEP 25 2016

NOTE: "FAIR" INDICATES FEW OR NO CLOUDS BELOW 12,000 FEET WITH NO
SIGNIFICANT WEATHER AND/OR OBSTRUCTIONS TO VISIBILITY.

* - THESE STATIONS ARE NOT NWS STATIONS...THUS NOT UNDER NWS
QUALITY CONTROL.  THEY ALSO DO NOT REPORT WEATHER SUCH
AS PRECIPITATION OR FOG.

IAZ001>003-012>014-020>022-031>034-043>046-260100-
   NORTHWEST IOWA

CITY           SKY/WX    TMP DP  RH WIND       PRES   REMARKS
CARROLL *      MOCLDY    63  48  59 NW8G14    30.10S
CHEROKEE *     PTCLDY    62  43  49 NW8       30.10R
DENISON *      PTCLDY    64  46  52 NW9       30.10R
LE MARS *      CLEAR     64  39  39 NW10G17   30.12R
ORANGE CITY *  CLEAR     63  41  45 NW13G20   30.11R
SHELDON *      CLEAR     63  41  45 NW9       30.08R
SIOUX CITY     CLEAR     66  40  38 NW15G23   30.12R
6HR MIN TEMP:  64; 6HR MAX TEMP:  70;

SPENCER        PTCLDY    61  45  55 W13       30.07R
6HR MIN TEMP:  57; 6HR MAX TEMP:  63; 6HR PCP: TRACE;

STORM LAKE *   CLEAR     63  45  51 NW10G17   30.10R
$$

IAZ055>058-069>071-079>083-090>094-260100-
   SOUTHWEST IOWA

CITY           SKY/WX    TMP DP  RH WIND       PRES   REMARKS
ATLANTIC *     CLEAR     64  50  59 NW5       30.13R
AUDUBON *      MOCLDY    63  50  63 CALM      30.13R
CLARINDA *       N/A     66  50  55 MISG      30.15R
COUNCIL BLFS * CLEAR     64  48  55 NW6       30.14R
CRESTON *      CLOUDY    64  48  55 NW10      30.14S
HARLAN  *      CLEAR     64  48  55 NW9       30.16R
LAMONI         CLOUDY    65  50  58 NW12G21   30.12R
6HR MIN TEMP:  64; 6HR MAX TEMP:  68;

RED OAK *      CLEAR     66  48  52 NW6       30.14R
SHENANDOAH *   CLEAR     66  48  52 NW6G13    30.15R
$$

IAZ047>049-059>061-072>074-084-260100-
   CENTRAL IOWA

CITY           SKY/WX    TMP DP  RH WIND       PRES   REMARKS
AMES           CLOUDY    62  52  69 NW13G22   30.09R
6HR MIN TEMP:  62; 6HR MAX TEMP:  68;

ANKENY *         N/A    N/A N/A N/A MISG        N/A
BOONE *        MOCLDY    61  50  67 NW8G14    30.09R
CHARITON *       N/A     64  50  59 NW18G26   30.10R
DES MOINES     MOCLDY    65  48  54 NW16G25   30.09R
6HR MIN TEMP:  65; 6HR MAX TEMP:  70;

GRINNELL*      CLOUDY    63  49  61 W15       30.08R
KNOXVILLE *    CLOUDY    64  48  55 W12G21    30.08R
MARSHALLTOWN   CLOUDY    62  51  67 W18G25    30.06R
6HR MIN TEMP:  62; 6HR MAX TEMP:  70; 6HR PCP: TRACE;

NEWTON *       CLOUDY    64  48  55 NW16G23   30.08R
PELLA *        PTCLDY    64  49  58 NW12G18   30.09R
PERRY *          N/A     62  51  66 NW5       30.10R
$$

IAZ004>006-015-016-023>025-035-036-260100-
   NORTH CENTRAL IOWA

CITY           SKY/WX    TMP DP  RH WIND       PRES   REMARKS
ALGONA *       PTCLDY    61  48  63 NW10      30.06S
CLARION *      CLOUDY    61  50  67 NW14G22   30.06S
ESTHERVILLE    CLEAR     60  46  59 W14       30.05R
6HR MIN TEMP:  58; 6HR MAX TEMP:  62;

FORT DODGE *   PTCLDY    61  48  63 NW10      30.09R
MASON CITY     CLOUDY    58  51  78 NW12      30.05R
6HR MIN TEMP:  58; 6HR MAX TEMP:  67; 6HR PCP: TRACE;

FOREST CITY *  CLOUDY    59  50  72 W9        30.04R
WEBSTER CITY * MOCLDY    61  52  72 W10G20    30.06S
IOWA FALLS *   CLOUDY    62  51  67 W14G25    30.07R
$$

IAZ007>011-017>019-026>030-037>042-050>054-066-260100-
   NORTHEAST IOWA

CITY           SKY/WX    TMP DP  RH WIND       PRES   REMARKS
CEDAR RAPIDS   CLOUDY    64  52  64 W16G29    30.02R
6HR MIN TEMP:  64; 6HR MAX TEMP:  74;

CHARLES CITY * CLOUDY    61  52  72 W10G20    30.02R
CLINTON *      CLOUDY    68  57  68 W14G22    29.99R
DECORAH *      CLOUDY    63  52  67 W9G20     29.98R
DUBUQUE        CLOUDY    64  53  67 W13       29.99R
6HR MIN TEMP:  64; 6HR MAX TEMP:  80;

MONTICELLO *   CLOUDY    66  52  59 W12       29.99S
OELWEIN *      CLOUDY    63  52  67 W16G23    30.02R
WATERLOO       CLOUDY    63  50  62 W12       30.02R
6HR MIN TEMP:  63; 6HR MAX TEMP:  72;

$$

IAZ064-065-067-068-078-260100-
   EAST CENTRAL IOWA

CITY           SKY/WX    TMP DP  RH WIND       PRES   REMARKS
DAVENPORT      CLOUDY    68  55  63 W15G23    30.00R
6HR MIN TEMP:  68; 6HR MAX TEMP:  86;

IOWA CITY      CLOUDY    66  53  63 W10       30.04R
6HR MIN TEMP:  66; 6HR MAX TEMP:  80; 6HR PCP: TRACE;

MUSCATINE *    CLOUDY    68  52  56 W15G23    30.03R
QUAD CITIES    PTCLDY    69  55  60 W16G25    30.00R
6HR MIN TEMP:  69; 6HR MAX TEMP:  87;

$$

IAZ062-063-075>077-085>089-095>099-260100-
   SOUTHEAST IOWA

CITY           SKY/WX    TMP DP  RH WIND       PRES   REMARKS
BURLINGTON     CLOUDY    63  56  78 W9        30.03R
6HR MIN TEMP:  63; 6HR MAX TEMP:  83;

FAIRFIELD *    CLOUDY    66  52  59 W9        30.05S
FORT MADISON *   N/A     66  55  68 W9G17     30.06R
KEOKUK *       MOCLDY    68  55  64 W14G21    30.05R
OSKALOOSA *      N/A     65  49  57 NW12G18   30.07R
OTTUMWA        CLOUDY    65  51  60 W13       30.07R
6HR MIN TEMP:  64; 6HR MAX TEMP:  70; 6HR PCP: TRACE;

WASHINGTON *     N/A    N/A N/A N/A MISG        N/A
$$

ABBREVIATIONS USED IN REMARKS
   TC - TEMPERATURES IN CELSIUS
  WCI - WIND CHILL INDEX
   HX - HEAT INDEX
  VSB - VISIBILITY
$$





USA.gov is the U.S. government's official web portal to all federal, state and local government web resources and services.